SCP
3 3 5 6 7 11 9 15 9 10 8 9 10 15 19 8 9 8 7 6 5 3
2 4 4 5 7 7 8 9 11 13 10 7 11 8 8 5 8 6 5 5 4 3
1 3 3 5 7 6 4 4 7 14 8 4 0 0 -0 1 3 4 4 4 5 5
2 2 4 5 5 6 5 3 5 2 5 3 0 -0 -0 0 2 2 4 4 4 4
1 2 3 3 3 3 4 3 1 2 -0 2 1 2 2 2 2 3 3 4 5 4
1 1 2 2 2 2 3 3 2 1 1 1 2 3 3 2 2 3 3 3 4 3
1 2 1 2 2 2 2 2 2 2 1 1 2 2 2 1 2 2 2 2 2 1
1 0 1 1 1 2 4 1 1 1 2 1 1 1 0 0 0 1 0 0 0 0
0 0 0 1 0 1 2 7 1 1 2 3 1 0 0 0 0 0 0 0 0 0
0 0 0 0 0 1 2 3 3 2 2 3 1 0 0 0 1 0 0 0 0 0
0 0 0 0 0 1 2 3 5 4 4 5 2 0 0 0 1 1 0 0 0 0
0 0 0 0 0 0 0 3 3 3 3 6 4 0 0 0 0 0 0 0 0 0
0 0 0 0 0 0 0 0 1 1 0 0 0 0 0 0 0 0 0 0 0 0
0 0 0 0 0 0 0 0 0 1 1 1 0 0 0 0 0 0 0 0 0 0
Wind_Speed_500mb
68 69 74 81 86 78 84 80 82 94 108 101 104 98 90 67 63 57 58 59 65 46
65 68 72 76 85 93 78 111 92 102 94 102 83 79 74 77 50 53 44 44 47 44
59 64 68 75 83 78 102 90 99 106 84 85 54 130 63 46 49 53 41 40 40 43
47 50 55 60 71 77 83 107 86 56 61 45 38 56 61 53 42 42 34 41 36 43
27 38 40 42 41 60 67 66 27 31 32 34 37 44 46 41 35 30 25 26 34 34
30 26 27 25 25 28 33 37 36 42 42 42 38 31 25 23 23 20 23 25 24 22
18 26 26 26 26 35 28 27 24 32 25 25 25 26 29 29 28 28 25 23 20 20
33 26 28 18 20 28 38 22 32 27 28 29 29 28 29 30 30 28 25 18 13 14
48 55 46 28 36 34 30 45 30 40 45 43 37 39 38 33 28 25 22 19 16 16
35 45 64 67 35 20 29 33 37 40 38 41 40 44 48 40 29 28 26 24 21 16
40 40 48 67 62 38 21 32 37 38 41 37 42 36 45 33 42 34 29 27 24 26
56 43 45 68 64 64 40 27 39 48 48 51 49 59 54 51 55 39 33 29 27 28
58 57 49 47 70 72 64 35 28 45 60 66 58 62 63 62 50 42 33 33 31 34
64 61 56 43 46 65 80 67 40 38 57 73 75 66 68 67 59 45 39 35 31 28
Wind_Direction_500mb
261 259 252 249 239 236 230 222 228 230 218 219 220 210 205 205 213 217 220 224 235 229
257 253 249 246 245 236 228 228 224 226 219 215 210 217 217 192 204 217 219 228 238 240
262 253 252 246 243 237 229 245 231 219 217 214 220 233 250 213 204 216 207 221 231 238
269 258 251 249 242 236 233 236 242 227 214 217 230 181 217 222 207 210 208 218 221 236
285 264 252 246 239 233 230 238 251 225 234 189 178 193 198 199 206 204 209 229 230 234
328 287 260 233 207 202 201 214 193 184 185 175 180 177 191 198 193 182 199 209 215 218
356 323 274 225 211 191 183 201 194 206 174 169 162 164 176 174 170 177 183 190 194 210
262 328 351 264 237 213 182 191 201 179 169 185 179 177 171 166 166 164 167 177 191 220
266 253 288 331 278 214 205 173 225 184 181 176 182 189 175 166 168 170 173 182 204 217
274 253 259 268 308 279 243 198 183 198 185 181 182 203 185 172 178 191 194 206 215 238
249 258 238 232 264 288 274 239 219 203 189 187 193 203 201 187 188 198 206 217 230 249
255 238 243 233 228 249 275 267 230 220 210 200 204 213 212 206 203 208 214 230 242 254
246 248 230 235 235 225 242 257 264 231 221 216 217 215 218 215 204 211 220 240 250 268
246 239 232 228 229 225 223 237 242 242 227 219 223 225 218 221 209 215 228 239 250 264
Wind_Speed_850mb
68 69 74 81 86 78 84 80 82 94 108 101 104 98 90 67 63 57 58 59 65 46
65 68 72 76 85 93 78 111 92 102 94 102 83 79 74 77 50 53 44 44 47 44
59 64 68 75 83 78 102 90 99 106 84 85 54 130 63 46 49 53 41 40 40 43
47 50 55 60 71 77 83 107 86 56 61 45 38 56 61 53 42 42 34 41 36 43
27 38 40 42 41 60 67 66 27 31 32 34 37 44 46 41 35 30 25 26 34 34
30 26 27 25 25 28 33 37 36 42 42 42 38 31 25 23 23 20 23 25 24 22
18 26 26 26 26 35 28 27 24 32 25 25 25 26 29 29 28 28 25 23 20 20
33 26 28 18 20 28 38 22 32 27 28 29 29 28 29 30 30 28 25 18 13 14
48 55 46 28 36 34 30 45 30 40 45 43 37 39 38 33 28 25 22 19 16 16
35 45 64 67 35 20 29 33 37 40 38 41 40 44 48 40 29 28 26 24 21 16
40 40 48 67 62 38 21 32 37 38 41 37 42 36 45 33 42 34 29 27 24 26
56 43 45 68 64 64 40 27 39 48 48 51 49 59 54 51 55 39 33 29 27 28
58 57 49 47 70 72 64 35 28 45 60 66 58 62 63 62 50 42 33 33 31 34
64 61 56 43 46 65 80 67 40 38 57 73 75 66 68 67 59 45 39 35 31 28
Wind_Direction_850mb
261 259 252 249 239 236 230 222 228 230 218 219 220 210 205 205 213 217 220 224 235 229
257 253 249 246 245 236 228 228 224 226 219 215 210 217 217 192 204 217 219 228 238 240
262 253 252 246 243 237 229 245 231 219 217 214 220 233 250 213 204 216 207 221 231 238
269 258 251 249 242 236 233 236 242 227 214 217 230 181 217 222 207 210 208 218 221 236
285 264 252 246 239 233 230 238 251 225 234 189 178 193 198 199 206 204 209 229 230 234
328 287 260 233 207 202 201 214 193 184 185 175 180 177 191 198 193 182 199 209 215 218
356 323 274 225 211 191 183 201 194 206 174 169 162 164 176 174 170 177 183 190 194 210
262 328 351 264 237 213 182 191 201 179 169 185 179 177 171 166 166 164 167 177 191 220
266 253 288 331 278 214 205 173 225 184 181 176 182 189 175 166 168 170 173 182 204 217
274 253 259 268 308 279 243 198 183 198 185 181 182 203 185 172 178 191 194 206 215 238
249 258 238 232 264 288 274 239 219 203 189 187 193 203 201 187 188 198 206 217 230 249
255 238 243 233 228 249 275 267 230 220 210 200 204 213 212 206 203 208 214 230 242 254
246 248 230 235 235 225 242 257 264 231 221 216 217 215 218 215 204 211 220 240 250 268
246 239 232 228 229 225 223 237 242 242 227 219 223 225 218 221 209 215 228 239 250 264